Погода в Ушаковском

Россия / Курганская область     56°16′51″N   62°27′00″E
темп.,
°C
ветер,
м/с
пор.,
м/с
влажн.,
%
обл.,
%
осадки,
мм/ч
давл.,
гПа
погр.,
м
11 апреля, вс
вс1123:00+3ю5119892 0.0 1037269
02:00+1ю5129658 0.0 1036280
05:00+1ю51389100 0.0 1036294
08:00+1ю6159192 0.0 1036313
11:00+4ю61498100 0.0 1035368
14:00+7ююз71189100 0.0 1035461
17:00+9ююз6128768 0.0 1034526
20:00+7ююз5129149 0.0 1033257
12 апреля, пн
пн1223:00+5ююз4892100 0.0 1033140
02:00+5юз3490100 0.0 103347
05:00+6з3590100 0.1 103479
08:00+6з3598100 1.6 1034104
11:00+7сз3598100 2.8 1035129
14:00+11ссз4564100 0.1 1035733
17:00+11с3670100 0.1 1037602
20:00+8ссз3382100 0.0 103840
13 апреля, вт
вт1323:00+5ссв33827 0.0 103931
02:00+3с33785 0.0 104024
05:00+2с22804 0.0 104110
08:00+4с11730 0.0 104277
11:00+8ююз11570 0.0 1042455
14:00+11ююз34485 0.0 1040784
17:00+12ююз45495 0.0 1038860
20:00+9ююз34705 0.0 103745
14 апреля, ср
ср1423:00+7ююз37775 0.0 1036104
02:00+6ююз498411 0.0 1035145
05:00+6юз488897 0.0 1034128
08:00+7юз3687100 0.0 1033153
11:00+13зюз457113 0.0 1031453
14:00+16зюз556050 0.0 1030995
17:00+18зюз45569 0.0 10281155
20:00+14юз457415 0.0 102763
15 апреля, чт
чт1523:00+11зюз35846 0.0 102666
02:00+10з33859 0.0 102638
05:00+8з33855 0.0 102541
08:00+10з36786 0.0 1025161
11:00+15з455259 0.0 1023601
14:00+18з45435 0.0 10221134
17:00+19зюз45435 0.0 10201523
20:00+14юз35685 0.0 101855